Overview Statistics Trail Chart Weather Telemetry Raw packets
 

This is the latest recevied weather packets stored in our database for station/object OK4PZ-5. If no packets are shown the sender has not sent any weather packets the latest 10 day(s).

<< 32 33 34 35 36 37 38 >>
Time Temp. Humidity Pressure Rain* Wind** Luminosity Snow
1787842802 27.22° C 48% 1019 hPa 0 mm - - -
1787841902 27.78° C 48% 1019 hPa 0 mm - - -
1787841002 27.78° C 48% 1019 hPa 0 mm - - -
1787840103 27.78° C 48% 1019 hPa 0 mm - - -
1787839202 27.78° C 48% 1019 hPa 0 mm - - -
1787838302 27.78° C 48% 1019 hPa 0 mm - - -
1787837402 27.78° C 48% 1019 hPa 0 mm - - -
1787836502 27.22° C 48% 1019 hPa 0 mm - - -
1787835602 27.78° C 49% 1019 hPa 0 mm - - -
1787834702 27.22° C 50% 1019 hPa 0 mm - - -
1787833803 26.67° C 49% 1019 hPa 0 mm - - -
1787832902 27.22° C 47% 1020 hPa 0 mm - - -
1787832002 27.22° C 48% 1020 hPa 0 mm - - -
1787831103 26.67° C 51% 1020 hPa 0 mm - - -
1787830208 26.67° C 50% 1020 hPa 0 mm - - -
1787829302 26.11° C 52% 1020 hPa 0 mm - - -
1787827503 26.11° C 53% 1020 hPa 0 mm - - -
1787826603 25.56° C 53% 1020 hPa 0 mm - - -
1787825702 25.56° C 52% 1020 hPa 0 mm - - -
1787824802 25° C 53% 1020 hPa 0 mm - - -
1787823902 25.56° C 51% 1020 hPa 0 mm - - -
1787823002 25° C 55% 1020 hPa 0 mm - - -
1787822103 25° C 57% 1020 hPa 0 mm - - -
1787821203 24.44° C 58% 1020 hPa 0 mm - - -
1787820302 23.33° C 59% 1020 hPa 0 mm - - -

* Rain latest hour (hover to see other rain measurements)
** Current wind speed in m/s (hover to see current wind gust speed)